Weather History for Toluca Jose Maria, Mexico

Change the Weather History Date:

Thursday, October 10, 2013

  Actual Average Record
Temperature  
Mean Temperature 58 °F -  
Max Temperature 68 °F 67 °F 73 °F (2003)
Min Temperature 48 °F 46 °F 44 °F (1996)
Degree Days  
Heating Degree Days 7    
Growing Degree Days 8 (Base 50)    
Moisture  
Dew Point 50 °F    
Average Humidity 78    
Maximum Humidity 94    
Minimum Humidity 46    
Precipitation  
Precipitation 0.35 in - - ()
Sea Level Pressure  
Sea Level Pressure 30.24 in    
Wind  
Wind Speed 4 mph ()    
Max Wind Speed 14 mph    
Max Gust Speed -    
Visibility 3.6 miles    
Events Fog , Rain , Thunderstorm    
Averages and records for this station are not official NWS values.
T = Trace of Precipitation, MM = Missing Value Source: Averaged Metar Reports

Daily Weather History Graph

Daily Weather History Graph

Search for Another Location

Airport:

Trip Planner

Search our weather history database for the weather conditions in past years. The results will help you decide how hot, cold, wet, or windy it might be!

Date:

Astronomy

Oct. 10, 2013 Rise Set
Actual Time 7:31 AM CDT 7:18 PM CDT
Civil Twilight 7:09 AM CDT 7:40 PM CDT
Nautical Twilight 6:43 AM CDT 8:06 PM CDT
Astronomical Twilight 6:18 AM CDT 8:31 PM CDT
Moon 12:55 PM CDT (10/10) No Moon Set
Length of Visible Light 12h 31m
Length of Day
11h 47m
Waxing Crescent, 36% of the Moon is Illuminated
Oct 10
Waxing Crescent
Oct 11
First Quarter
Oct 18
Full
Oct 26
Last Quarter
Nov 3
New

Hourly Weather History & Observations

Time (CDT) Temp. Dew Point Humidity Pressure Visibility Wind Dir Wind Speed Gust Speed Precip Events Conditions
12:43 AM 53.6 °F 50.0 °F 88% 29.81 in 4.0 mi West 3.5 mph - N/A   Overcast
1:43 AM 51.8 °F 48.2 °F 88% 30.38 in 4.0 mi NW 5.8 mph - N/A Rain Light Rain
2:42 AM 53.6 °F 50.0 °F 88% 30.38 in 4.0 mi ENE 2.3 mph - N/A Rain Light Rain
3:59 AM 53.6 °F 50.0 °F 88% 29.75 in 4.0 mi East 4.6 mph - N/A   Overcast
4:40 AM 53.6 °F 50.0 °F 88% 30.35 in 4.0 mi East 4.6 mph - N/A   Overcast
5:46 AM 53.6 °F 50.0 °F 88% 30.34 in 2.0 mi Calm Calm - N/A   Scattered Clouds
6:22 AM 51.8 °F 48.2 °F 88% 30.35 in 1.0 mi East 3.5 mph - N/A   Clear
6:30 AM 50.0 °F 46.4 °F 87% 30.35 in 1.0 mi ENE 2.3 mph - N/A Fog Fog
6:45 AM 50.0 °F 48.2 °F 94% 30.35 in 1.0 mi ENE 3.5 mph - N/A Fog Fog
7:23 AM 50.0 °F 46.4 °F 87% 30.36 in 0.1 mi Calm Calm - N/A Fog Fog
7:45 AM 48.2 °F 46.4 °F 93% 30.36 in 0.1 mi Calm Calm - N/A Fog Fog
8:45 AM 53.6 °F 50.0 °F 88% 30.38 in 0.2 mi Calm Calm - N/A Fog Fog
9:30 AM 53.6 °F 50.0 °F 88% 30.40 in 0.2 mi SE 4.6 mph - N/A Fog Fog
9:52 AM 55.4 °F 51.8 °F 88% 30.40 in 1.0 mi SSE 4.6 mph - N/A   Mostly Cloudy
10:41 AM 57.2 °F 51.8 °F 82% 30.40 in 2.0 mi SSE 4.6 mph - N/A   Scattered Clouds
11:09 AM 62.6 °F 48.2 °F 59% 30.40 in 6.0 mi SSE 6.9 mph - N/A   Scattered Clouds
11:48 AM 64.4 °F 48.2 °F 56% 30.40 in 7.0 mi SSE 4.6 mph - N/A   Scattered Clouds
12:49 PM 66.2 °F 48.2 °F 52% 29.77 in 7.0 mi South 3.5 mph - N/A   Scattered Clouds
1:47 PM 68.0 °F 46.4 °F 46% 30.33 in 7.0 mi South 5.8 mph - N/A   Mostly Cloudy
2:45 PM 68.0 °F 50.0 °F 52% 30.31 in 7.0 mi East 8.1 mph - N/A   Mostly Cloudy
3:42 PM 66.2 °F 48.2 °F 52% 29.71 in 7.0 mi SSE 8.1 mph - N/A   Overcast
4:45 PM 64.4 °F 51.8 °F 64% 30.29 in 7.0 mi SSE 13.8 mph - N/A   Overcast
5:42 PM 64.4 °F 51.8 °F 64% 30.28 in 7.0 mi SSE 10.4 mph - N/A   Overcast
6:43 PM 62.6 °F 53.6 °F 72% 29.72 in 4.0 mi SSE 5.8 mph - N/A   Overcast
7:44 PM 59.0 °F 53.6 °F 82% 30.30 in 4.0 mi SE 8.1 mph - N/A   Overcast
8:27 PM 59.0 °F 51.8 °F 77% 30.33 in 3.0 mi ESE 9.2 mph - N/A Rain , Thunderstorm Light Thunderstorms and Rain
8:43 PM 57.2 °F 51.8 °F 82% 30.35 in 3.0 mi ENE 5.8 mph - N/A Rain , Thunderstorm Light Thunderstorms and Rain
9:50 PM 55.4 °F 51.8 °F 88% 29.87 in 3.0 mi NNW 3.5 mph - N/A   Haze
10:44 PM 53.6 °F 50.0 °F 88% 30.37 in 3.0 mi North 5.8 mph - N/A   Haze
11:45 PM 53.6 °F 50.0 °F 88% 30.38 in 3.0 mi North 4.6 mph - N/A Rain Light Rain